Change the Weather History Date:

Friday, March 15, 2013

  Actual Average Record
Temperature  
Mean Temperature 60 °F -  
Max Temperature 81 °F 54 °F 81 °F (2013)
Min Temperature 38 °F 27 °F 31 °F (2014)
Degree Days  
Heating Degree Days 6    
Growing Degree Days 10 (Base 50)    
Moisture  
Dew Point 24 °F    
Average Humidity 37    
Maximum Humidity 75    
Minimum Humidity 7    
Precipitation  
Precipitation 0.00 in - - ()
Sea Level Pressure  
Sea Level Pressure 29.89 in    
Wind  
Wind Speed 11 mph (West)    
Max Wind Speed 20 mph    
Max Gust Speed 32 mph    
Visibility 10 miles    
Events      
Averages and records for this station are not official NWS values.
T = Trace of Precipitation, MM = Missing Value Source: NWS Daily Summary

Daily Weather History Graph

Daily Weather History Graph

Search for Another Location

Airport or City:

Trip Planner

Search our weather history database for the weather conditions in past years. The results will help you decide how hot, cold, wet, or windy it might be!

Date:

Astronomy

Mar. 15, 2013 Rise Set
Actual Time 7:58 AM CDT 7:54 PM CDT
Civil Twilight 7:31 AM CDT 8:21 PM CDT
Nautical Twilight 6:59 AM CDT 8:52 PM CDT
Astronomical Twilight 6:28 AM CDT 9:24 PM CDT
Moon 9:50 AM CDT (3/15) No Moon Set
Length of Visible Light 12h 50m
Length of Day
11h 56m
Waxing Crescent, 15% of the Moon is Illuminated
Mar 15
Waxing Crescent
Mar 19
First Quarter
Mar 27
Full
Apr 2
Last Quarter
Apr 10
New

Hourly Weather History & Observations

Time (CDT) Temp. Windchill Dew Point Humidity Pressure Visibility Wind Dir Wind Speed Gust Speed Precip Events Conditions
12:15 AM 46.4 °F 41.9 °F 30.2 °F 53% 30.08 in 10.0 mi SW 9.2 mph - N/A   Clear
12:35 AM 46.4 °F 41.5 °F 30.0 °F 53% 30.08 in 10.0 mi SW 10.4 mph - N/A   Clear
12:55 AM 45.1 °F 40.3 °F 30.0 °F 55% 30.07 in 10.0 mi SW 9.2 mph - N/A   Clear
1:15 AM 44.4 °F 38.6 °F 30.2 °F 57% 30.06 in 10.0 mi SW 11.5 mph - N/A   Clear
1:35 AM 44.8 °F 39.0 °F 30.6 °F 57% 30.06 in 10.0 mi SW 11.5 mph - N/A   Clear
2:15 AM 38.1 °F 31.7 °F 30.7 °F 75% 30.04 in 10.0 mi SW 9.2 mph - N/A   Clear
2:35 AM 42.8 °F 36.2 °F 31.6 °F 65% 30.03 in 10.0 mi SW 12.7 mph - N/A   Clear
2:55 AM 43.7 °F 37.7 °F 31.5 °F 62% 30.03 in 10.0 mi SW 11.5 mph - N/A   Clear
3:15 AM 43.0 °F 36.4 °F 31.3 °F 63% 30.02 in 10.0 mi SW 12.7 mph - N/A   Clear
3:35 AM 42.3 °F 35.9 °F 31.1 °F 65% 30.01 in 10.0 mi SW 11.5 mph - N/A   Clear
3:55 AM 42.8 °F 37.0 °F 31.1 °F 63% 30.00 in 10.0 mi SW 10.4 mph - N/A   Clear
4:15 AM 43.0 °F 36.0 °F 31.1 °F 63% 29.99 in 10.0 mi SW 13.8 mph - N/A   Clear
4:35 AM 43.7 °F 36.3 °F 31.3 °F 62% 29.98 in 10.0 mi SW 16.1 mph - N/A   Clear
4:55 AM 43.7 °F 36.3 °F 31.3 °F 62% 29.97 in 10.0 mi WSW 16.1 mph - N/A   Clear
5:15 AM 43.0 °F 35.7 °F 31.1 °F 63% 29.97 in 10.0 mi WSW 15.0 mph - N/A   Clear
5:35 AM 42.8 °F 35.4 °F 31.1 °F 63% 29.96 in 10.0 mi SW 15.0 mph - N/A   Clear
5:55 AM 41.7 °F 34.8 °F 31.1 °F 66% 29.96 in 10.0 mi SW 12.7 mph - N/A   Clear
6:15 AM 40.3 °F 33.9 °F 31.1 °F 70% 29.96 in 10.0 mi SW 10.4 mph - N/A   Clear
6:35 AM 40.1 °F 32.7 °F 30.7 °F 69% 29.96 in 10.0 mi SW 12.7 mph - N/A   Clear
6:55 AM 40.1 °F 32.7 °F 30.6 °F 69% 29.95 in 10.0 mi SW 12.7 mph - N/A   Clear
7:15 AM 40.1 °F 32.7 °F 30.2 °F 68% 29.94 in 10.0 mi SW 12.7 mph - N/A   Clear
7:35 AM 40.8 °F 34.5 °F 30.6 °F 67% 29.94 in 10.0 mi SW 10.4 mph - N/A   Clear
7:55 AM 41.2 °F 35.5 °F 30.7 °F 66% 29.94 in 10.0 mi WSW 9.2 mph - N/A   Clear
8:15 AM 42.3 °F 36.3 °F 30.9 °F 64% 29.94 in 10.0 mi SW 10.4 mph - N/A   Clear
8:35 AM 43.2 °F 37.4 °F 30.9 °F 62% 29.94 in 10.0 mi SW 10.4 mph - N/A   Clear
8:55 AM 44.6 °F 38.8 °F 30.9 °F 59% 29.93 in 10.0 mi SW 11.5 mph - N/A   Clear
9:15 AM 45.7 °F 40.2 °F 30.9 °F 56% 29.93 in 10.0 mi SW 11.5 mph - N/A   Clear
9:35 AM 47.1 °F - 31.1 °F 54% 29.92 in 10.0 mi SW 9.2 mph - N/A   Clear
9:55 AM 49.1 °F - 31.3 °F 50% 29.92 in 10.0 mi SW 11.5 mph - N/A   Clear
10:55 AM 55.6 °F - 32.0 °F 41% 29.92 in 10.0 mi WSW 9.2 mph - N/A   Clear
11:15 AM 59.2 °F - 30.9 °F 34% 29.91 in 10.0 mi WSW 12.7 mph - N/A   Clear
11:35 AM 63.1 °F - 30.0 °F 29% 29.90 in 10.0 mi WSW 12.7 mph - N/A   Clear
11:55 AM 68.0 °F - 29.3 °F 24% 29.89 in 10.0 mi WSW 8.1 mph - N/A   Clear
12:15 PM 71.6 °F - 28.2 °F 20% 29.88 in 10.0 mi WSW 8.1 mph - N/A   Clear
12:35 PM 74.7 °F - 26.2 °F 17% 29.88 in 10.0 mi SW 5.8 mph - N/A   Clear
12:55 PM 79.2 °F - 17.4 °F 10% 29.87 in 10.0 mi West 9.2 mph - N/A   Clear
1:15 PM 81.5 °F - 10.4 °F 7% 29.86 in 10.0 mi WNW 17.3 mph 27.6 mph N/A   Clear
1:35 PM 79.0 °F - 10.6 °F 7% 29.86 in 10.0 mi NW 18.4 mph 32.2 mph N/A   Clear
1:55 PM 78.3 °F - 11.1 °F 8% 29.85 in 10.0 mi NW 18.4 mph - N/A   Clear
2:15 PM 77.0 °F - 12.0 °F 8% 29.85 in 10.0 mi NW 12.7 mph 24.2 mph N/A   Clear
2:35 PM 77.0 °F - 12.6 °F 9% 29.84 in 10.0 mi NW 15.0 mph 20.7 mph N/A   Clear
2:55 PM 76.5 °F - 13.6 °F 9% 29.83 in 10.0 mi WNW 15.0 mph 19.6 mph N/A   Clear
3:15 PM 76.1 °F - 14.4 °F 10% 29.83 in 10.0 mi NW 13.8 mph - N/A   Clear
3:35 PM 77.9 °F - 14.5 °F 9% 29.81 in 10.0 mi NNW 12.7 mph 20.7 mph N/A   Clear
3:55 PM 78.6 °F - 14.0 °F 9% 29.81 in 10.0 mi NW 12.7 mph 24.2 mph N/A   Clear
4:15 PM 79.9 °F - 13.5 °F 8% 29.79 in 10.0 mi NW 16.1 mph 25.3 mph N/A   Clear
4:35 PM 79.9 °F - 13.6 °F 8% 29.79 in 10.0 mi WNW 11.5 mph 23.0 mph N/A   Clear
4:55 PM 80.1 °F - 15.6 °F 9% 29.78 in 10.0 mi West 16.1 mph 19.6 mph N/A   Clear
5:15 PM 79.7 °F - 16.7 °F 9% 29.78 in 10.0 mi West 12.7 mph 19.6 mph N/A   Clear
5:35 PM 78.8 °F - 16.9 °F 10% 29.78 in 10.0 mi WSW 12.7 mph 18.4 mph N/A   Clear
5:55 PM 78.8 °F - 14.4 °F 9% 29.79 in 10.0 mi NNW 19.6 mph 27.6 mph N/A   Scattered Clouds
6:15 PM 78.6 °F - 16.3 °F 10% 29.79 in 10.0 mi NW 16.1 mph 31.1 mph N/A   Scattered Clouds
6:35 PM 78.1 °F - 16.0 °F 10% 29.78 in 10.0 mi NNW 10.4 mph 18.4 mph N/A   Clear
6:55 PM 74.3 °F - 16.9 °F 11% 29.78 in 10.0 mi NNW 6.9 mph - N/A   Clear
7:15 PM 73.2 °F - 14.4 °F 11% 29.78 in 10.0 mi NNW 4.6 mph - N/A   Scattered Clouds
7:35 PM 70.5 °F - 14.7 °F 12% 29.78 in 10.0 mi North 3.5 mph - N/A   Scattered Clouds
7:55 PM 70.5 °F - 15.6 °F 12% 29.79 in 10.0 mi Calm Calm - N/A   Scattered Clouds
8:15 PM 68.7 °F - 16.9 °F 14% 29.81 in 10.0 mi Calm Calm - N/A   Scattered Clouds
8:35 PM 66.7 °F - 18.0 °F 15% 29.81 in 10.0 mi North 3.5 mph - N/A   Scattered Clouds
8:55 PM 64.6 °F - 19.2 °F 18% 29.81 in 10.0 mi Calm Calm - N/A   Scattered Clouds
9:15 PM 61.9 °F - 22.8 °F 22% 29.81 in 10.0 mi Calm Calm - N/A   Scattered Clouds
9:35 PM 56.8 °F - 25.2 °F 30% 29.81 in 10.0 mi NNE 3.5 mph - N/A   Clear
9:55 PM 57.7 °F - 26.1 °F 30% 29.81 in 10.0 mi WNW 3.5 mph - N/A   Clear
10:15 PM 54.0 °F - 27.5 °F 36% 29.82 in 10.0 mi Calm Calm - N/A   Clear
10:35 PM 53.2 °F - 26.4 °F 35% 29.84 in 10.0 mi Calm Calm - N/A   Clear
10:55 PM 51.6 °F - 28.8 °F 41% 29.84 in 10.0 mi NNW 3.5 mph - N/A   Clear
11:15 PM 53.2 °F - 27.5 °F 37% 29.85 in 10.0 mi Calm Calm - N/A   Clear
11:35 PM 52.3 °F - 28.4 °F 40% 29.85 in 10.0 mi ENE 10.4 mph - N/A   Clear
11:55 PM 52.5 °F - 29.7 °F 42% 29.87 in 10.0 mi ENE 8.1 mph - N/A   Clear